Hourly Weather Kissonerga

Today, 30 July, Friday

Time Temperature Precipitation Wind Pressure Humidity
00:00 +30°C° 0 mm 3 mps 752 mmHg 42%
01:00 +30°C° 0 mm 3 mps 752 mmHg 40%
02:00 +29°C° 0 mm 2 mps 752 mmHg 38%
03:00 +29°C° 0 mm 2 mps 752 mmHg 38%
04:00 +29°C° 0 mm 2 mps 752 mmHg 39%
05:00 +29°C° 0 mm 2 mps 752 mmHg 40%
06:00 +31°C° 0 mm 2 mps 752 mmHg 36%
07:00 +34°C° 0 mm 2 mps 752 mmHg 33%
08:00 +36°C° 0 mm 2 mps 752 mmHg 29%
09:00 +37°C° 0 mm 3 mps 752 mmHg 31%
10:00 +37°C° 0 mm 3 mps 752 mmHg 32%
11:00 +38°C° 0 mm 3 mps 752 mmHg 34%
12:00 +38°C° 0 mm 3 mps 752 mmHg 34%
13:00 +38°C° 0 mm 3 mps 752 mmHg 35%
14:00 +38°C° 0 mm 3 mps 752 mmHg 35%
15:00 +37°C° 0 mm 3 mps 751 mmHg 35%
16:00 +37°C° 0 mm 3 mps 751 mmHg 36%
17:00 +37°C° 0 mm 3 mps 751 mmHg 36%
18:00 +35°C° 0 mm 3 mps 751 mmHg 44%
19:00 +33°C° 0 mm 3 mps 752 mmHg 52%
20:00 +30°C° 0 mm 2 mps 752 mmHg 60%
21:00 +30°C° 0 mm 2 mps 752 mmHg 53%
22:00 +30°C° 0 mm 3 mps 752 mmHg 45%
23:00 +31°C° 0 mm 3 mps 752 mmHg 38%

Tomorrow, 31 July, Saturday

Time Temperature Precipitation Wind Pressure Humidity
00:00 +30°C° 0 mm 3 mps 751 mmHg 37%
01:00 +30°C° 0 mm 3 mps 751 mmHg 37%
02:00 +30°C° 0 mm 3 mps 751 mmHg 37%
03:00 +30°C° 0 mm 2 mps 751 mmHg 38%
04:00 +29°C° 0 mm 2 mps 751 mmHg 39%
05:00 +29°C° 0 mm 2 mps 751 mmHg 40%
06:00 +31°C° 0 mm 2 mps 751 mmHg 37%
07:00 +34°C° 0 mm 2 mps 751 mmHg 35%
08:00 +36°C° 0 mm 2 mps 751 mmHg 32%
09:00 +37°C° 0 mm 2 mps 751 mmHg 34%
10:00 +38°C° 0 mm 2 mps 751 mmHg 35%
11:00 +38°C° 0 mm 3 mps 751 mmHg 36%
12:00 +38°C° 0 mm 3 mps 751 mmHg 38%
13:00 +38°C° 0 mm 3 mps 751 mmHg 39%
14:00 +38°C° 0 mm 2 mps 751 mmHg 40%
15:00 +38°C° 0 mm 2 mps 751 mmHg 41%
16:00 +37°C° 0 mm 2 mps 751 mmHg 42%
17:00 +37°C° 0 mm 2 mps 751 mmHg 43%
18:00 +35°C° 0 mm 2 mps 751 mmHg 49%
19:00 +34°C° 0 mm 2 mps 751 mmHg 55%
20:00 +31°C° 0 mm 1 mps 752 mmHg 61%
21:00 +31°C° 0 mm 2 mps 752 mmHg 58%
22:00 +31°C° 0 mm 2 mps 752 mmHg 55%
23:00 +31°C° 0 mm 2 mps 752 mmHg 52%

Day after tomorrow, 1 August, Sunday

Time Temperature Precipitation Wind Pressure Humidity
00:00 +31°C° 0 mm 2 mps 752 mmHg 45%
01:00 +31°C° 0 mm 3 mps 751 mmHg 39%
02:00 +33°C° 0 mm 3 mps 751 mmHg 32%
03:00 +31°C° 0 mm 3 mps 751 mmHg 33%
04:00 +31°C° 0 mm 2 mps 751 mmHg 34%
05:00 +30°C° 0 mm 2 mps 751 mmHg 35%
06:00 +32°C° 0 mm 2 mps 752 mmHg 34%
07:00 +35°C° 0 mm 2 mps 752 mmHg 32%
08:00 +36°C° 0 mm 1 mps 752 mmHg 31%
09:00 +38°C° 0 mm 2 mps 752 mmHg 33%
10:00 +38°C° 0 mm 2 mps 752 mmHg 34%
11:00 +39°C° 0 mm 3 mps 752 mmHg 36%
12:00 +39°C° 0 mm 3 mps 752 mmHg 36%
13:00 +39°C° 0 mm 3 mps 752 mmHg 36%
14:00 +39°C° 0 mm 3 mps 751 mmHg 35%
15:00 +39°C° 0 mm 3 mps 751 mmHg 37%
16:00 +38°C° 0 mm 3 mps 751 mmHg 38%
17:00 +38°C° 0 mm 2 mps 751 mmHg 39%
18:00 +36°C° 0 mm 2 mps 751 mmHg 45%
19:00 +34°C° 0 mm 2 mps 752 mmHg 51%
20:00 +32°C° 0 mm 2 mps 752 mmHg 57%
21:00 +32°C° 0 mm 2 mps 752 mmHg 52%
22:00 +33°C° 0 mm 3 mps 752 mmHg 47%
23:00 +33°C° 0 mm 3 mps 752 mmHg 42%

2 August, Monday

Time Temperature Precipitation Wind Pressure Humidity
00:00 +33°C° 0 mm 3 mps 751 mmHg 38%
01:00 +33°C° 0 mm 3 mps 751 mmHg 33%
02:00 +33°C° 0 mm 3 mps 751 mmHg 29%
03:00 +33°C° 0 mm 3 mps 751 mmHg 29%
04:00 +31°C° 0 mm 2 mps 751 mmHg 29%
05:00 +31°C° 0 mm 2 mps 751 mmHg 30%
06:00 +34°C° 0 mm 2 mps 752 mmHg 29%
07:00 +35°C° 0 mm 1 mps 752 mmHg 28%
08:00 +37°C° 0 mm 1 mps 752 mmHg 27%
09:00 +38°C° 0 mm 2 mps 752 mmHg 29%
10:00 +39°C° 0 mm 2 mps 752 mmHg 31%
11:00 +39°C° 0 mm 3 mps 752 mmHg 33%
12:00 +39°C° 0 mm 3 mps 752 mmHg 33%
13:00 +39°C° 0 mm 3 mps 752 mmHg 34%
14:00 +39°C° 0 mm 3 mps 752 mmHg 34%
15:00 +39°C° 0 mm 3 mps 752 mmHg 35%
16:00 +38°C° 0 mm 3 mps 752 mmHg 36%
17:00 +38°C° 0 mm 2 mps 752 mmHg 37%
18:00 +36°C° 0 mm 2 mps 752 mmHg 43%
19:00 +34°C° 0 mm 1 mps 752 mmHg 48%
20:00 +32°C° 0 mm 1 mps 752 mmHg 53%
21:00 +32°C° 0 mm 2 mps 752 mmHg 49%
22:00 +32°C° 0 mm 2 mps 752 mmHg 45%
23:00 +33°C° 0 mm 3 mps 753 mmHg 40%

3 August, Tuesday

Time Temperature Precipitation Wind Pressure Humidity
00:00 +32°C° 0 mm 2 mps 752 mmHg 36%
01:00 +32°C° 0 mm 2 mps 752 mmHg 32%
02:00 +32°C° 0 mm 2 mps 752 mmHg 28%
03:00 +32°C° 0 mm 2 mps 752 mmHg 28%
04:00 +33°C° 0 mm 3 mps 752 mmHg 28%
05:00 +33°C° 0 mm 3 mps 752 mmHg 28%
06:00 +35°C° 0 mm 2 mps 753 mmHg 27%
07:00 +37°C° 0 mm 2 mps 753 mmHg 26%
08:00 +39°C° 0 mm 1 mps 753 mmHg 26%
09:00 +39°C° 0 mm 2 mps 753 mmHg 27%
10:00 +40°C° 0 mm 2 mps 753 mmHg 28%
11:00 +40°C° 0 mm 3 mps 753 mmHg 29%
12:00 +40°C° 0 mm 3 mps 753 mmHg 30%
13:00 +40°C° 0 mm 3 mps 753 mmHg 31%
14:00 +40°C° 0 mm 3 mps 753 mmHg 33%
15:00 +40°C° 0 mm 3 mps 753 mmHg 33%
16:00 +39°C° 0 mm 3 mps 753 mmHg 33%
17:00 +39°C° 0 mm 3 mps 753 mmHg 33%
18:00 +37°C° 0 mm 2 mps 753 mmHg 38%
19:00 +35°C° 0 mm 2 mps 753 mmHg 43%
20:00 +32°C° 0 mm 2 mps 754 mmHg 48%
21:00 +32°C° 0 mm 2 mps 754 mmHg 45%
22:00 +32°C° 0 mm 2 mps 754 mmHg 42%
23:00 +32°C° 0 mm 2 mps 754 mmHg 39%

4 August, Wednesday

Time Temperature Precipitation Wind Pressure Humidity
00:00 +32°C° 0 mm 2 mps 754 mmHg 35%
01:00 +34°C° 0 mm 2 mps 754 mmHg 31%
02:00 +34°C° 0 mm 2 mps 754 mmHg 27%
03:00 +32°C° 0 mm 2 mps 754 mmHg 27%
04:00 +32°C° 0 mm 2 mps 754 mmHg 27%
05:00 +33°C° 0 mm 3 mps 754 mmHg 27%
06:00 +35°C° 0 mm 2 mps 754 mmHg 27%
07:00 +37°C° 0 mm 2 mps 755 mmHg 26%
08:00 +39°C° 0 mm 1 mps 755 mmHg 25%
09:00 +39°C° 0 mm 2 mps 755 mmHg 26%
10:00 +40°C° 0 mm 2 mps 755 mmHg 28%
11:00 +40°C° 0 mm 3 mps 755 mmHg 29%
12:00 +40°C° 0 mm 3 mps 755 mmHg 31%
13:00 +41°C° 0 mm 4 mps 755 mmHg 32%
14:00 +41°C° 0 mm 4 mps 755 mmHg 33%
15:00 +40°C° 0 mm 4 mps 755 mmHg 34%
16:00 +40°C° 0 mm 4 mps 755 mmHg 35%
17:00 +38°C° 0 mm 3 mps 755 mmHg 36%
18:00 +37°C° 0 mm 3 mps 755 mmHg 39%
19:00 +35°C° 0 mm 3 mps 755 mmHg 42%
20:00 +33°C° 0 mm 3 mps 755 mmHg 45%
21:00 +33°C° 0 mm 3 mps 755 mmHg 42%
22:00 +33°C° 0 mm 3 mps 755 mmHg 39%
23:00 +33°C° 0 mm 3 mps 755 mmHg 36%
Show more